Wind_Speed
34 35 35 36 37 38 39 39 40 40 41 43 43 42 41 41 42 42 42 42 42 42 42 42 43 43 43 43 42 42 41 41 42 42 42 42 43 43 44 44 43 43 44 44
35 35 35 36 37 38 39 40 40 41 42 43 43 42 41 41 41 41 41 42 42 42 43 43 43 44 44 44 44 44 43 43 44 44 45 45 46 45 45 45 44 44 45 46
34 34 35 36 37 39 40 41 41 41 41 42 42 41 40 40 40 40 41 41 41 42 43 43 44 45 45 45 45 44 45 45 45 45 46 46 47 47 46 47 47 46 47 47
33 33 34 35 37 38 39 40 40 40 40 40 40 41 38 39 40 40 40 41 41 41 42 43 43 44 45 45 46 46 46 47 47 46 46 47 47 47 47 48 48 49 49 49
32 33 33 34 35 36 37 37 38 38 39 39 39 41 39 38 38 38 38 39 39 40 41 42 43 43 44 44 45 47 48 48 48 48 48 48 49 49 49 49 50 50 50 50
31 32 33 33 33 33 33 34 35 36 36 37 37 38 40 38 37 37 37 37 38 38 39 40 42 43 44 45 46 47 48 49 50 50 50 50 50 50 51 50 50 51 51 51
30 30 30 30 30 31 31 32 33 33 33 36 35 37 38 36 36 36 36 37 37 37 38 39 41 43 44 46 47 47 48 50 50 51 51 51 50 50 51 51 52 52 51 51
29 28 28 28 28 29 29 30 32 34 35 34 34 37 36 35 36 36 36 37 38 38 38 39 41 42 43 45 46 47 48 49 49 50 50 50 50 50 50 51 51 51 51 51
28 27 26 26 27 28 28 29 30 33 35 36 35 36 36 35 35 36 36 37 38 39 40 40 41 41 42 44 45 46 47 48 48 49 49 50 50 50 50 50 51 51 51 51
27 27 25 25 26 26 27 28 29 31 34 36 36 35 35 34 33 34 36 37 39 40 41 41 41 41 42 44 45 45 46 47 48 48 48 49 49 49 50 49 49 50 50 51
26 26 25 25 25 26 26 27 28 31 32 35 36 34 32 33 32 33 35 37 38 38 39 40 41 41 42 43 43 44 46 46 47 47 48 48 49 49 49 49 49 50 50 51
26 27 26 25 25 25 27 28 28 30 31 32 35 34 32 33 34 34 35 36 37 38 39 40 41 41 42 43 43 44 44 45 46 47 48 48 49 48 49 49 49 50 50 50
26 26 27 26 26 27 28 28 29 31 33 34 34 33 32 33 34 35 36 36 36 37 38 39 39 40 41 42 42 43 43 44 45 46 47 47 48 48 48 49 49 49 50 51
26 26 27 27 27 28 29 29 30 31 33 34 34 33 32 33 33 34 34 34 35 36 37 38 39 39 40 41 42 42 43 43 44 45 47 47 47 48 48 48 48 47 48 49
26 27 27 27 27 28 28 29 29 30 31 33 33 33 33 33 33 34 35 35 35 36 37 37 38 39 40 40 41 42 42 43 43 44 45 46 46 46 46 46 46 46 46 47
26 27 27 27 27 28 28 28 28 28 29 30 32 32 33 33 33 33 35 35 36 36 37 38 38 39 39 39 40 41 41 41 41 42 43 44 44 44 45 45 45 45 45 46
26 27 26 26 26 28 28 28 28 29 29 30 30 31 32 32 32 33 35 35 35 36 36 36 36 38 38 38 38 39 39 39 40 41 41 42 43 43 43 43 44 44 44 45
25 25 26 26 27 27 28 29 29 29 30 30 31 31 32 32 32 32 33 34 35 35 35 35 36 36 36 37 37 37 38 38 39 39 40 40 41 41 42 42 43 43 44 44
25 25 26 27 28 28 28 28 28 28 29 30 31 31 32 33 33 33 33 33 34 34 33 34 34 34 35 35 34 34 35 36 38 39 40 40 40 40 40 41 41 42 43 43
26 26 27 28 29 29 28 28 28 29 29 30 30 30 31 32 33 33 33 33 33 33 34 34 33 34 34 34 34 33 34 35 36 38 39 40 39 39 40 40 41 41 42 41
27 27 27 28 29 29 29 29 29 29 30 30 30 31 31 31 33 33 33 32 33 33 33 34 34 33 33 33 34 34 34 35 36 36 37 38 39 39 39 39 40 40 40 40
27 28 28 28 29 29 29 29 29 29 30 31 31 31 32 32 33 33 33 33 33 33 33 34 33 33 33 32 33 33 34 35 36 36 36 36 37 38 38 38 38 38 39 39
29 29 29 29 29 29 30 30 30 30 31 31 32 32 32 33 33 34 33 33 33 33 33 33 33 33 33 32 33 33 34 34 35 36 36 36 36 36 37 37 38 38 38 38
30 30 29 29 29 30 30 31 31 31 32 33 33 33 33 34 34 34 34 34 34 33 33 33 32 32 32 33 33 33 33 34 34 34 35 36 36 36 36 36 37 37 38 37
31 30 30 30 30 31 31 32 32 32 33 33 34 34 35 35 34 34 33 33 33 32 32 33 33 32 32 32 32 33 33 34 34 34 34 35 35 35 36 36 36 36 36 37
31 30 30 30 30 30 30 31 32 33 33 34 34 34 34 34 34 34 33 33 33 32 31 31 31 31 30 30 31 31 32 33 34 34 34 34 34 34 34 35 35 35 36 37
Wind_Direction
273 270 270 271 269 268 268 267 266 266 265 265 264 264 262 261 260 259 258 258 258 258 258 257 256 255 254 254 255 256 256 256 256 256 256 255 256 259 260 260 259 259 259 260
273 272 272 270 269 269 269 268 268 267 267 266 266 264 262 261 260 259 259 258 258 257 256 256 256 255 254 253 254 255 256 256 256 256 256 256 259 260 259 260 259 259 259 260
275 276 274 272 271 270 269 269 269 269 268 267 266 263 261 260 260 260 260 259 259 258 258 256 255 255 255 254 255 255 255 256 256 257 257 258 259 260 260 260 259 260 260 260
277 276 274 273 271 270 269 270 270 269 269 267 265 265 260 261 261 261 261 260 260 260 259 257 255 254 254 254 254 254 255 255 256 256 257 258 259 260 260 259 260 260 261 261
278 277 275 273 272 272 271 270 269 269 269 267 265 265 262 262 262 262 261 260 259 259 259 257 255 254 253 253 254 254 254 255 256 257 258 259 260 261 261 260 261 262 262 262
280 278 276 275 273 272 272 271 269 268 268 267 266 267 266 263 263 263 261 261 260 260 259 258 255 255 255 255 254 254 255 255 257 258 259 260 261 261 261 261 262 262 263 263
283 280 278 277 274 272 271 272 272 271 270 269 269 268 268 267 266 264 263 263 261 261 259 258 257 256 257 257 256 256 256 257 257 258 260 261 261 262 261 261 261 261 262 263
286 283 281 280 278 276 275 273 271 272 272 273 269 267 269 269 269 268 266 264 263 262 261 260 260 259 259 259 258 257 257 257 258 259 259 260 261 261 261 261 261 261 262 263
290 288 284 281 280 278 275 272 272 274 275 275 274 273 271 270 269 267 266 265 265 265 264 264 262 262 261 261 260 259 259 258 258 259 259 259 260 260 260 260 260 260 261 262
293 291 287 283 280 276 276 275 273 272 275 276 276 276 275 272 271 269 267 266 267 267 267 265 264 263 262 262 261 261 260 260 259 259 259 259 259 259 260 260 260 261 261 261
292 291 288 286 282 278 275 276 273 273 274 274 275 276 276 275 274 272 270 269 269 268 267 266 265 264 263 263 262 261 261 260 260 259 259 259 259 259 260 260 260 261 262 262
290 290 290 288 285 283 279 277 275 273 273 274 276 277 277 274 273 272 270 269 269 268 267 267 266 265 264 264 263 263 262 261 260 260 259 259 259 259 259 260 260 261 261 261
291 291 291 290 287 284 281 280 276 274 273 273 274 277 277 276 273 271 270 270 269 268 268 266 266 266 266 266 265 264 264 263 262 261 260 259 258 258 258 259 259 260 260 261
292 291 290 291 290 288 282 281 279 277 276 275 275 275 275 275 274 273 273 274 273 272 271 270 268 268 268 267 266 265 265 264 263 262 261 260 258 258 258 258 258 259 260 261
292 292 292 291 290 289 285 282 281 279 278 276 275 275 276 275 275 275 275 275 275 274 273 272 271 269 268 267 266 265 265 264 263 262 261 260 259 259 258 257 257 258 259 260
294 295 293 290 289 288 286 284 281 279 278 277 275 275 276 278 277 277 277 277 276 275 274 272 272 271 269 268 266 265 264 264 263 262 262 260 259 259 258 257 257 257 259 260
298 296 295 293 290 289 288 287 284 281 279 278 277 277 277 277 277 277 276 276 276 275 275 274 273 272 270 270 268 266 264 263 263 262 262 261 260 259 259 258 258 258 259 259
301 299 297 296 295 293 293 290 288 286 283 280 279 278 279 280 280 279 279 278 278 277 277 276 275 274 272 270 268 266 264 263 262 261 261 261 261 260 260 259 259 259 259 259
300 299 298 297 296 295 294 293 291 289 287 285 283 281 279 279 280 282 283 282 281 280 279 277 276 274 272 269 267 266 265 263 261 261 261 261 261 261 261 260 260 260 259 260
299 299 299 298 297 297 297 294 292 290 288 287 285 284 282 282 281 281 282 284 284 282 280 277 276 275 271 269 267 266 265 264 263 262 262 261 261 261 262 262 262 261 260 260
298 297 297 297 296 296 297 295 293 290 290 289 287 285 284 283 284 283 283 283 284 283 281 279 277 275 272 270 267 266 265 265 265 264 263 262 262 263 263 263 263 262 261 260
298 297 296 297 297 297 298 296 293 291 290 288 288 286 284 283 283 284 284 283 283 283 281 278 277 275 273 270 268 268 267 266 266 266 266 265 264 264 263 263 263 262 261 262
297 296 296 297 297 297 296 295 293 291 290 289 288 287 286 284 283 283 283 283 282 282 281 279 276 275 273 271 270 269 268 267 266 265 266 266 266 266 266 265 264 264 263 262
296 295 294 294 294 294 294 293 292 291 290 289 289 288 287 285 284 284 284 284 283 282 281 280 278 276 274 273 272 271 269 268 268 266 266 267 268 268 267 267 266 264 263 262
297 295 294 294 294 293 293 293 292 292 291 290 289 289 288 287 286 285 285 284 283 282 281 280 279 278 277 275 273 272 270 268 268 268 268 267 268 268 267 267 266 265 263 262
297 296 296 296 295 295 295 295 294 294 293 292 292 291 290 288 287 286 286 285 283 282 280 280 279 278 277 276 275 274 272 270 269 269 268 268 268 268 268 266 265 264 263 262
Height
5682 5681 5680 5680 5679 5679 5678 5678 5678 5680 5679 5677 5677 5679 5680 5680 5680 5681 5682 5683 5685 5686 5687 5688 5689 5690 5692 5693 5695 5696 5698 5699 5700 5701 5702 5704 5705 5706 5707 5708 5709 5710 5711 5712
5672 5671 5672 5669 5668 5667 5666 5665 5666 5667 5666 5664 5665 5666 5667 5667 5668 5669 5670 5671 5673 5674 5675 5676 5678 5679 5681 5682 5684 5685 5687 5688 5689 5690 5692 5693 5694 5694 5695 5696 5697 5698 5699 5700
5660 5662 5660 5658 5657 5656 5655 5654 5655 5655 5654 5652 5652 5653 5655 5656 5656 5657 5658 5660 5661 5662 5663 5665 5666 5667 5669 5671 5673 5674 5675 5676 5678 5679 5680 5681 5682 5683 5684 5685 5686 5687 5688 5688
5649 5650 5649 5647 5646 5644 5643 5644 5643 5642 5641 5640 5641 5640 5645 5645 5645 5646 5648 5648 5649 5650 5651 5651 5653 5655 5657 5659 5661 5662 5663 5664 5665 5667 5668 5669 5670 5671 5672 5673 5673 5674 5675 5676
5639 5639 5637 5635 5635 5633 5633 5633 5631 5630 5629 5629 5629 5628 5632 5633 5634 5635 5637 5637 5638 5639 5639 5639 5640 5642 5644 5646 5648 5650 5651 5652 5653 5655 5656 5657 5658 5659 5659 5660 5661 5661 5662 5662
5629 5628 5626 5625 5624 5623 5622 5621 5620 5619 5618 5617 5619 5618 5619 5622 5624 5625 5626 5626 5627 5627 5627 5628 5629 5631 5632 5634 5635 5637 5638 5639 5640 5642 5643 5644 5645 5645 5646 5646 5647 5647 5648 5649
5620 5618 5616 5615 5614 5613 5612 5611 5609 5607 5606 5607 5610 5608 5609 5612 5613 5614 5615 5615 5616 5616 5616 5617 5617 5619 5620 5621 5622 5624 5625 5626 5627 5628 5629 5630 5631 5632 5633 5633 5634 5634 5634 5635
5609 5609 5607 5605 5604 5603 5602 5601 5600 5598 5597 5598 5599 5597 5601 5602 5602 5602 5603 5604 5604 5605 5605 5606 5606 5607 5607 5608 5609 5610 5611 5612 5613 5615 5616 5616 5617 5618 5619 5619 5620 5620 5621 5621
5600 5600 5599 5597 5596 5595 5593 5592 5592 5590 5588 5588 5587 5588 5591 5591 5591 5591 5592 5592 5592 5592 5593 5593 5594 5594 5594 5595 5596 5597 5598 5599 5600 5601 5602 5603 5603 5604 5605 5605 5606 5607 5607 5608
5592 5591 5591 5589 5588 5586 5585 5584 5583 5581 5579 5577 5577 5578 5580 5580 5580 5580 5580 5579 5579 5580 5580 5580 5581 5581 5581 5582 5582 5583 5584 5585 5586 5587 5588 5589 5590 5591 5591 5592 5593 5594 5594 5594
5585 5583 5583 5581 5579 5578 5577 5576 5573 5572 5570 5569 5567 5570 5570 5570 5569 5569 5568 5567 5567 5567 5568 5568 5568 5568 5569 5569 5569 5569 5570 5571 5572 5573 5574 5575 5576 5577 5578 5578 5579 5580 5580 5581
5577 5575 5574 5573 5571 5569 5568 5566 5565 5564 5562 5559 5558 5561 5560 5559 5558 5557 5556 5556 5555 5555 5555 5555 5555 5555 5555 5556 5556 5556 5557 5558 5558 5559 5560 5561 5562 5563 5564 5564 5565 5566 5566 5567
5569 5568 5566 5565 5565 5563 5560 5558 5556 5555 5553 5551 5549 5552 5550 5548 5547 5546 5545 5545 5544 5543 5543 5543 5543 5542 5542 5542 5543 5543 5544 5544 5545 5545 5546 5547 5547 5548 5549 5550 5551 5551 5552 5552
5562 5560 5559 5557 5554 5552 5550 5549 5547 5545 5543 5541 5540 5540 5540 5537 5537 5536 5535 5534 5533 5532 5531 5531 5531 5530 5530 5529 5530 5530 5531 5531 5531 5531 5532 5533 5533 5534 5535 5536 5536 5537 5538 5538
5554 5553 5550 5548 5546 5543 5541 5540 5538 5536 5534 5532 5531 5530 5529 5528 5526 5525 5524 5523 5522 5521 5520 5519 5519 5518 5518 5517 5517 5517 5517 5517 5517 5518 5518 5519 5519 5520 5521 5522 5522 5523 5524 5524
5547 5545 5543 5541 5538 5535 5533 5532 5529 5527 5525 5523 5521 5521 5519 5518 5516 5514 5513 5512 5511 5510 5509 5507 5506 5506 5505 5505 5504 5504 5504 5504 5504 5504 5505 5505 5506 5506 5507 5508 5509 5509 5510 5511
5540 5537 5534 5533 5530 5527 5525 5524 5521 5518 5516 5514 5512 5512 5509 5508 5506 5505 5503 5502 5500 5498 5497 5496 5494 5493 5492 5492 5491 5490 5490 5490 5491 5491 5492 5492 5493 5493 5494 5494 5495 5496 5497 5497
5533 5530 5527 5524 5523 5520 5520 5514 5512 5509 5507 5505 5503 5501 5499 5498 5496 5494 5492 5490 5489 5487 5486 5484 5482 5481 5480 5479 5478 5478 5478 5478 5478 5479 5479 5479 5480 5480 5481 5481 5482 5483 5483 5484
5526 5523 5519 5516 5513 5511 5510 5506 5503 5500 5498 5496 5494 5492 5490 5488 5486 5484 5482 5479 5477 5476 5474 5472 5471 5470 5468 5467 5467 5466 5466 5466 5466 5467 5467 5467 5467 5468 5468 5469 5469 5470 5471 5471
5519 5515 5513 5508 5505 5502 5502 5498 5494 5492 5490 5487 5484 5482 5480 5478 5477 5476 5472 5469 5467 5465 5463 5462 5460 5459 5457 5456 5455 5455 5455 5455 5455 5455 5455 5455 5455 5456 5456 5457 5457 5457 5458 5459
5512 5508 5505 5501 5497 5494 5492 5488 5486 5485 5482 5478 5475 5472 5470 5468 5466 5464 5461 5459 5457 5455 5453 5451 5449 5448 5446 5445 5444 5444 5444 5444 5443 5443 5443 5444 5444 5444 5444 5445 5445 5445 5445 5446
5503 5500 5496 5493 5489 5488 5483 5479 5477 5475 5471 5468 5465 5463 5461 5458 5456 5453 5451 5449 5447 5444 5442 5440 5439 5437 5436 5434 5433 5433 5433 5433 5432 5432 5432 5432 5432 5432 5432 5432 5433 5433 5433 5434
5494 5491 5487 5485 5483 5478 5473 5470 5467 5464 5461 5458 5456 5453 5451 5449 5446 5444 5441 5439 5436 5434 5432 5430 5428 5426 5425 5423 5423 5422 5422 5421 5421 5421 5421 5421 5421 5421 5421 5421 5421 5421 5421 5422
5486 5482 5478 5475 5472 5468 5465 5461 5458 5455 5452 5449 5446 5443 5440 5438 5436 5433 5431 5428 5426 5423 5421 5419 5417 5416 5414 5413 5412 5411 5411 5410 5410 5410 5410 5410 5410 5410 5409 5409 5409 5409 5410 5410
5476 5472 5469 5466 5463 5459 5456 5452 5449 5446 5442 5439 5436 5433 5430 5427 5425 5422 5420 5417 5415 5413 5411 5409 5407 5405 5404 5402 5401 5400 5400 5399 5399 5399 5399 5399 5398 5398 5398 5398 5398 5398 5398 5398
5467 5463 5460 5457 5453 5450 5447 5443 5439 5436 5433 5429 5426 5423 5420 5417 5414 5411 5409 5406 5404 5402 5400 5398 5397 5395 5394 5392 5391 5390 5389 5389 5388 5388 5388 5387 5387 5387 5387 5387 5387 5386 5386 5386